This demonstration page uses our WeatherBlox Daily Observations layout. Learn more.

Left ArrowRight Arrow

41.86663, -103.66717

Hourly Observations for May 23, 2022

Temp ( °F °C ) Dew Point ( °F °C ) Humidity (%) Winds ( mph kmh ) Pressure ( in mb ) Visibility ( mi km ) Precip ( " mm )
12:53 am 00:53 Cloudy 52 11.1 32 0 47 47 SE 17 28 30.07 1018 10 16 0.00 0.00
1:53 am 01:53 Cloudy with Light Rain 47 8.3 42 5.6 83 83 S 29 46 30.07 1018 4 6 0.01 0.25
2:53 am 02:53 Mostly Clear 46 7.8 41 5 83 83 SE 14 22 30.06 1018 10 16 0.03 0.76
3:53 am 03:53 Mostly Cloudy 45 7.2 40 4.4 83 83 ESE 14 22 30.07 1018 10 16 0.00 0.00
4:53 am 04:53 Cloudy 45 7.2 40 4.4 83 83 ESE 15 24 30.06 1018 10 16 0.00 0.00
5:18 am 05:18 Cloudy 45 7.2 40 4.4 83 83 ESE 15 24 30.10 1019 10 16 0.00 0.00
5:48 am 05:48 Cloudy 45 7 39 4 81 81 SE 13 20 30.09 1019 10 16 0.00 0.00
5:53 am 05:53 Cloudy 45 7.2 40 4.4 83 83 SE 13 20 30.05 1018 10 16 0.00 0.00
6:53 am 06:53 Cloudy 44 6.7 38 3.3 79 79 ESE 15 24 30.06 1018 10 16 0.00 0.00
7:53 am 07:53 Cloudy 45 7.2 39 3.9 80 80 ESE 18 30 30.05 1018 10 16 0.00 0.00
8:53 am 08:53 Mostly Sunny 48 8.9 40 4.4 74 74 SE 18 30 30.04 1017 10 16 0.00 0.00
9:53 am 09:53 Cloudy 47 8.3 40 4.4 77 77 ESE 15 24 30.05 1018 10 16 0.00 0.00
10:17 am 10:17 Cloudy 46 7.8 41 5 83 83 ESE 13 20 30.07 1018 10 16 0.00 0.00
10:53 am 10:53 Cloudy 46 7.8 41 5 83 83 ESE 14 22 30.05 1018 10 16 0.00 0.00
11:53 am 11:53 Cloudy with Light Rain 44 6.7 40 4.4 85 85 SSE 16 26 30.06 1018 7 11 0.04 1.02
12:21 pm 12:21 Cloudy with Light Rain 44 6.7 39 3.9 83 83 SSE 10 17 30.09 1019 10 16 0.00 0.00
12:53 pm 12:53 Cloudy 45 7.2 40 4.4 83 83 SE 10 17 30.05 1018 10 16 0.00 0.00
1:13 pm 13:13 Cloudy with Light Rain 46 7.8 41 5 83 83 SE 10 17 30.06 1018 10 16 0.00 0.00
1:26 pm 13:26 Cloudy 46 7.8 40 4.4 79 79 ESE 10 17 30.06 1018 10 16 0.00 0.00
1:33 pm 13:33 Cloudy 46 7.8 41 5 83 83 ESE 12 19 30.06 1018 10 16 0.00 0.00
1:53 pm 13:53 Cloudy 46 7.8 39 3.9 77 77 ESE 9 15 30.06 1018 10 16 0.00 0.00
2:53 pm 14:53 Cloudy 49 9.4 40 4.4 71 71 SE 9 15 30.05 1018 10 16 0.00 0.00
3:15 pm 15:15 Mostly Cloudy 51 10.6 40 4.4 66 66 E 7 11 30.02 1016 10 16 0.00 0.00
3:30 pm 15:30 Cloudy 51 10.6 40 4.4 66 66 VRB 6 9 30.02 1016 10 16 0.00 0.00
3:53 pm 15:53 Cloudy 52 11.1 40 4.4 64 64 Calm 30.04 1017 10 16 0.00 0.00
4:31 pm 16:31 Mostly Cloudy 54 12.2 40 4.4 59 59 E 8 13 29.98 1015 10 16 0.00 0.00
4:53 pm 16:53 Partly Cloudy 53 11.7 41 5 64 64 E 9 15 30.04 1017 10 16 0.00 0.00
5:53 pm 17:53 Mostly Sunny 52 11.1 40 4.4 64 64 ESE 13 20 30.04 1017 10 16 0.00 0.00
6:20 pm 18:20 Mostly Cloudy 52 11 39 4 62 62 ESE 13 20 30.01 1016 10 16 0.00 0.00
6:30 pm 18:30 Partly Cloudy 50 10 40 4.4 68 68 SSE 12 19 30.03 1017 10 16 0.00 0.00
6:38 pm 18:38 Mostly Cloudy 52 11 41 5 67 67 SE 12 19 30.01 1016 10 16 0.00 0.00
6:51 pm 18:51 Mostly Cloudy 50 10 41 5 71 71 SE 12 19 30.03 1017 10 16 0.00 0.00
6:53 pm 18:53 Mostly Cloudy 50 10 41 5 71 71 SE 13 20 30.06 1018 10 16 0.00 0.00
7:01 pm 19:01 Mostly Cloudy 51 10.6 41 5 69 69 E 10 17 30.03 1017 10 16 0.00 0.00
7:29 pm 19:29 Partly Cloudy 48 8.9 41 5 77 77 ESE 13 20 30.05 1018 10 16 0.00 0.00
7:53 pm 19:53 Sunny 47 8.3 41 5 80 80 ESE 9 15 30.07 1018 10 16 0.00 0.00
8:53 pm 20:53 Clear 45 7.2 41 5 86 86 ESE 7 11 30.07 1018 10 16 0.00 0.00
9:53 pm 21:53 Clear 43 6.1 40 4.4 89 89 E 6 9 30.11 1020 10 16 0.00 0.00
10:39 pm 22:39 Partly Cloudy 43 6.1 40 4.4 89 89 SE 5 7 30.12 1020 10 16 0.00 0.00
10:49 pm 22:49 Mostly Cloudy 45 7 41 5 87 87 SE 7 11 30.10 1019 10 16 0.00 0.00
10:53 pm 22:53 Mostly Cloudy 44 6.7 41 5 89 89 SE 6 9 30.10 1019 10 16 0.00 0.00
11:53 pm 23:53 Cloudy 45 7.2 42 5.6 90 90 SE 8 13 30.10 1019 10 16 0.00 0.00

Powered by AerisWeather